Wind_Speed
30 29 29 27 25 24 22 20 20 20 21 19 17 15 13 9 9 7 5 2 1 1 3 8 9 9 8 9 8 10 9 6 5 4 3 3 4 6 7 9 10 10 10
32 32 30 30 29 25 24 22 21 21 21 21 19 18 16 13 11 11 7 3 4 5 4 8 11 12 11 10 10 10 10 8 4 2 1 1 4 5 5 6 7 8 11
30 34 34 32 30 26 26 25 23 23 22 23 22 20 19 16 13 11 9 8 7 9 7 8 11 14 14 13 12 11 10 9 7 5 3 1 1 2 2 3 6 9 14
23 32 35 34 31 30 28 28 27 24 24 24 24 24 22 18 15 14 13 13 10 10 10 10 11 15 17 16 14 13 12 11 8 6 4 3 2 3 3 4 7 11 14
20 26 31 34 34 33 31 30 29 26 25 25 26 25 21 19 17 18 16 16 14 12 12 12 13 14 17 17 17 15 13 11 8 7 6 4 4 3 5 7 8 12 18
20 19 28 34 34 33 32 31 31 28 26 26 26 26 22 19 19 20 18 16 15 12 13 13 14 13 16 19 18 15 13 12 11 9 6 6 6 8 11 12 13 13 14
18 21 22 29 31 31 32 32 31 30 28 26 26 26 24 23 21 21 19 16 13 14 14 14 14 16 18 20 19 17 15 14 12 10 8 8 8 11 12 15 18 20 20
18 20 24 25 26 28 29 29 30 30 29 29 27 26 26 25 24 22 20 14 13 15 14 14 15 20 19 21 19 18 17 16 15 12 9 10 10 13 17 19 22 23 24
20 19 19 22 26 27 27 28 31 32 31 30 29 27 26 26 26 23 19 15 15 16 15 14 16 20 23 21 19 19 18 15 14 12 11 12 14 17 20 22 23 23 22
20 20 22 21 24 25 26 28 30 32 31 32 32 29 28 27 27 24 21 18 18 17 16 16 15 18 22 21 22 19 15 14 14 14 13 15 19 22 25 26 26 25 25
32 29 26 24 23 24 26 28 27 28 30 31 33 31 29 28 28 26 25 20 21 20 18 17 18 20 20 21 21 19 17 18 17 15 17 19 22 25 27 28 29 27 27
38 35 31 25 22 22 24 27 29 27 26 29 32 33 31 29 29 27 26 24 25 22 20 20 20 20 20 21 22 22 21 20 20 20 21 21 24 29 29 30 29 29 28
45 39 35 29 27 26 24 25 28 29 26 26 29 31 32 32 31 29 28 29 29 23 22 21 21 22 22 22 22 22 22 22 20 18 19 22 26 29 32 33 31 28 28
49 43 40 35 31 28 27 25 26 29 29 28 27 28 31 34 32 30 31 31 30 26 23 21 22 23 24 23 23 25 24 22 21 22 25 26 29 31 35 37 34 29 28
52 47 45 40 37 34 32 29 26 29 31 32 31 31 34 35 33 33 35 34 34 30 29 27 26 27 27 28 28 27 29 30 29 29 31 36 38 36 36 39 37 31 29
55 50 49 45 41 39 37 32 28 24 29 34 37 37 37 37 36 36 37 37 38 37 35 31 31 32 31 32 31 31 32 32 35 36 39 40 37 37 39 40 37 33 30
60 55 57 50 46 46 41 38 36 29 28 31 39 41 37 36 37 38 39 40 40 43 41 39 38 38 38 37 36 36 35 36 38 42 41 40 39 39 41 41 36 33 33
66 60 58 54 53 54 51 48 46 39 35 34 38 41 39 40 41 41 42 45 44 45 49 50 42 40 42 41 39 38 40 43 43 42 42 42 41 42 42 38 36 35 33
62 63 64 59 62 57 56 54 53 51 47 42 38 41 44 44 46 46 47 47 49 51 54 53 49 35 43 43 41 40 38 43 45 48 45 43 41 42 38 36 35 35 35
63 65 65 67 69 64 60 58 54 57 55 51 46 46 48 47 47 49 49 49 49 53 54 30 26 36 43 42 40 43 42 42 43 46 43 38 37 37 37 37 36 35 36
61 64 65 67 71 66 66 60 61 63 57 50 49 46 49 48 51 53 57 58 59 55 58 51 30 37 41 44 37 39 40 42 42 40 37 35 34 36 37 36 36 37 39
48 54 62 64 64 65 65 64 63 64 64 57 48 47 54 56 57 57 60 63 66 63 44 54 46 47 50 41 37 38 38 39 40 38 36 36 37 38 39 40 41 42 43
45 51 56 58 69 74 68 68 65 68 70 66 61 61 61 72 61 65 50 57 64 43 33 28 35 40 42 40 38 39 42 43 42 42 42 41 40 41 42 44 45 47 49
49 49 49 54 60 51 48 42 61 66 68 68 74 64 67 26 20 26 36 34 25 32 35 37 38 40 44 42 39 39 40 42 44 45 47 48 48 48 50 48 48 50 53
44 53 57 56 59 60 62 68 71 66 52 44 86 44 37 30 28 28 32 35 39 43 43 42 45 48 48 46 45 42 41 42 44 47 48 49 51 52 55 54 56 58 58
54 58 44 49 55 68 75 71 75 70 61 49 34 46 45 43 43 44 40 39 40 41 43 45 47 48 48 49 50 49 49 48 49 51 53 55 57 60 61 63 63 64 65
Wind_Direction
224 224 222 222 220 212 216 216 213 210 215 220 221 225 225 219 207 206 206 222 296 307 223 221 214 212 198 195 193 197 199 201 195 168 130 93 69 49 33 23 13 9 6
222 224 224 224 227 221 220 221 220 216 219 222 228 232 231 226 219 218 231 250 287 289 264 226 219 217 204 205 206 203 210 220 221 212 197 66 47 27 23 9 4 2 2
226 224 224 224 226 226 224 228 225 223 223 225 230 234 239 237 233 234 250 261 267 278 281 261 227 221 217 206 212 210 212 211 212 204 177 71 29 351 344 344 356 352 353
229 226 226 225 226 227 226 228 232 230 228 227 230 233 238 242 239 247 259 269 271 267 265 262 251 227 219 213 212 211 210 206 203 189 197 214 240 252 274 326 336 341 336
239 226 226 228 226 227 227 227 231 233 236 234 232 236 238 241 244 252 261 273 275 264 258 252 249 236 223 213 211 213 212 211 209 218 224 233 228 277 300 318 326 335 337
247 231 224 225 228 227 228 228 232 233 236 240 237 237 241 242 246 254 266 274 273 253 240 243 242 237 221 213 211 208 217 215 218 224 240 260 294 305 312 318 322 326 331
239 244 231 225 229 231 231 231 232 236 235 239 241 241 244 246 249 254 265 268 256 241 236 236 239 230 215 207 210 214 219 220 232 242 255 273 290 300 304 310 318 319 323
238 243 244 234 231 234 237 237 234 235 236 238 238 241 246 250 253 256 263 251 239 236 238 240 236 223 211 207 208 212 213 223 236 249 254 271 283 294 299 307 313 318 318
233 245 246 247 244 240 240 238 236 237 238 241 240 243 247 251 249 255 256 242 237 234 238 246 239 225 212 214 209 211 221 226 233 244 253 263 277 291 293 297 304 314 323
241 249 248 250 244 243 242 240 237 235 235 237 239 240 245 247 244 252 246 244 236 235 238 241 230 216 209 206 209 221 223 237 249 255 271 284 288 293 298 301 304 310 318
241 241 248 243 238 238 238 241 242 240 236 236 238 240 243 241 240 246 244 239 228 229 231 227 221 217 215 216 219 222 230 239 253 266 273 281 288 289 291 295 301 309 313
236 240 239 226 221 232 237 235 237 242 244 240 238 240 241 242 241 243 240 231 227 227 227 225 226 226 225 226 226 234 239 250 259 266 275 281 288 290 291 291 297 302 306
231 233 234 228 230 229 229 238 239 240 242 243 240 236 237 240 243 241 236 230 228 223 227 227 228 234 241 243 251 247 254 254 266 270 277 284 287 290 287 287 290 295 300
233 230 231 230 232 235 234 234 242 241 242 245 242 237 237 240 241 236 232 228 226 227 225 224 226 230 235 237 239 253 261 258 265 277 287 290 295 294 286 286 287 290 292
226 231 232 235 234 238 241 239 242 241 238 239 240 238 239 240 237 230 226 224 223 220 219 224 227 231 235 240 246 248 255 263 276 285 289 293 294 293 284 282 284 282 285
226 225 231 237 237 238 241 242 240 243 238 237 239 238 240 242 239 233 229 224 224 228 228 229 232 236 239 243 249 257 263 271 278 286 290 287 286 283 280 280 281 278 283
226 225 230 231 234 242 242 243 249 247 251 247 239 240 239 241 240 234 228 226 229 230 234 233 232 237 242 245 251 256 264 271 278 283 282 284 281 284 282 279 277 276 282
224 227 229 233 234 236 240 246 249 250 250 255 247 240 240 234 232 230 229 228 229 232 236 234 231 242 248 252 254 260 264 269 273 278 281 278 279 280 280 279 276 276 281
228 226 230 234 232 235 236 240 249 249 252 248 251 242 238 233 231 231 234 236 236 238 241 240 220 243 250 255 264 271 268 268 273 277 277 278 278 278 277 275 276 278 281
229 232 231 233 235 232 237 237 244 245 248 236 240 233 232 232 235 236 237 240 237 248 246 253 248 274 264 262 272 272 273 272 270 271 274 276 274 273 274 275 279 280 282
231 233 230 231 234 233 235 238 237 241 240 224 240 241 238 235 237 237 239 241 248 244 249 256 251 259 257 269 268 271 274 273 270 267 269 272 275 277 278 277 278 280 283
232 234 232 234 235 236 237 240 238 244 250 249 238 243 245 242 237 241 243 254 238 258 247 240 251 254 266 267 265 270 275 277 270 268 269 271 273 275 276 276 278 281 282
225 227 230 235 239 233 236 240 239 244 244 247 251 239 240 249 237 236 256 258 263 254 249 249 253 259 266 265 270 275 275 272 271 272 272 273 274 276 276 279 281 281 283
223 222 223 231 230 236 227 228 231 229 241 243 244 248 256 235 228 248 240 236 246 252 250 255 258 259 260 263 265 268 271 273 274 273 273 273 273 275 274 275 276 279 278
227 231 229 229 234 237 239 241 249 241 254 251 240 240 246 248 232 223 222 226 230 236 240 246 253 255 257 259 261 266 271 275 277 279 279 280 282 282 279 280 277 276 274
229 229 226 229 237 240 241 245 247 247 242 223 230 221 229 233 240 250 252 254 248 245 247 250 252 256 261 262 261 262 265 268 270 272 275 277 280 281 282 283 282 281 280
Height
5911 5915 5920 5925 5929 5933 5936 5940 5943 5946 5948 5950 5953 5955 5957 5959 5959 5960 5962 5963 5964 5964 5964 5964 5966 5967 5968 5969 5970 5971 5972 5973 5975 5976 5976 5976 5976 5976 5975 5974 5973 5972 5971
5906 5910 5915 5920 5925 5930 5934 5938 5941 5943 5946 5948 5951 5953 5956 5957 5958 5959 5960 5962 5962 5963 5963 5963 5964 5965 5967 5969 5970 5971 5973 5974 5975 5976 5976 5976 5975 5975 5975 5974 5974 5972 5970
5899 5904 5909 5915 5921 5927 5931 5935 5938 5940 5943 5946 5948 5951 5953 5955 5956 5957 5958 5959 5960 5961 5962 5962 5962 5964 5966 5968 5970 5971 5972 5974 5975 5975 5976 5976 5975 5975 5974 5973 5972 5970 5968
5893 5898 5904 5910 5916 5921 5926 5930 5934 5937 5940 5943 5945 5947 5950 5952 5954 5955 5955 5956 5957 5958 5959 5960 5961 5962 5963 5966 5969 5970 5971 5973 5974 5975 5975 5975 5974 5974 5973 5972 5971 5969 5966
5888 5892 5898 5904 5909 5914 5920 5924 5929 5933 5936 5939 5941 5944 5947 5949 5951 5951 5952 5953 5953 5955 5956 5958 5959 5960 5961 5964 5967 5969 5970 5971 5973 5973 5974 5974 5973 5973 5972 5971 5969 5967 5963
5883 5887 5891 5896 5902 5909 5914 5919 5923 5928 5931 5934 5938 5940 5942 5945 5947 5948 5948 5950 5950 5951 5953 5954 5955 5957 5959 5961 5964 5966 5968 5969 5970 5971 5971 5971 5971 5970 5969 5968 5966 5965 5963
5879 5882 5886 5891 5897 5903 5908 5912 5918 5922 5925 5930 5933 5936 5938 5940 5942 5944 5945 5946 5947 5948 5949 5950 5952 5953 5955 5958 5960 5963 5965 5967 5967 5968 5968 5968 5968 5967 5966 5965 5962 5961 5959
5875 5879 5882 5887 5893 5897 5902 5908 5911 5916 5920 5923 5927 5931 5934 5936 5938 5940 5941 5942 5943 5944 5945 5946 5948 5949 5952 5954 5957 5960 5961 5963 5964 5965 5966 5966 5966 5965 5962 5961 5958 5955 5954
5871 5876 5879 5882 5886 5891 5897 5901 5904 5908 5913 5918 5922 5925 5929 5931 5933 5935 5936 5938 5939 5940 5941 5942 5943 5945 5948 5951 5954 5956 5957 5959 5960 5961 5963 5963 5963 5961 5959 5957 5955 5951 5949
5868 5872 5873 5876 5880 5885 5889 5893 5896 5900 5906 5910 5914 5919 5922 5924 5927 5930 5931 5932 5934 5936 5937 5937 5939 5941 5944 5947 5950 5952 5955 5955 5956 5957 5958 5958 5957 5956 5953 5950 5948 5946 5944
5860 5864 5868 5872 5875 5879 5882 5886 5890 5894 5898 5903 5908 5911 5915 5917 5920 5923 5925 5928 5929 5930 5932 5933 5935 5938 5941 5943 5945 5948 5951 5951 5952 5953 5953 5953 5951 5950 5947 5945 5942 5939 5937
5852 5858 5863 5866 5870 5873 5877 5881 5884 5888 5892 5896 5900 5904 5908 5911 5914 5917 5920 5922 5923 5926 5927 5929 5931 5934 5937 5940 5942 5943 5944 5945 5947 5947 5947 5946 5944 5942 5940 5937 5936 5933 5931
5843 5850 5856 5860 5864 5868 5872 5875 5877 5882 5886 5890 5893 5897 5901 5904 5907 5910 5913 5915 5917 5921 5923 5924 5927 5929 5931 5933 5935 5937 5939 5940 5941 5941 5941 5939 5937 5935 5933 5930 5928 5926 5925
5836 5844 5848 5852 5857 5861 5865 5868 5871 5875 5879 5883 5886 5889 5892 5895 5899 5902 5904 5907 5911 5915 5917 5918 5920 5922 5925 5927 5929 5931 5932 5933 5934 5934 5933 5931 5929 5928 5924 5922 5920 5919 5918
5825 5834 5839 5843 5849 5854 5857 5862 5864 5867 5870 5874 5877 5879 5881 5885 5889 5892 5895 5899 5902 5905 5907 5909 5912 5915 5918 5920 5922 5924 5925 5925 5925 5925 5924 5923 5921 5919 5917 5914 5912 5912 5910
5815 5823 5829 5834 5840 5844 5849 5853 5856 5858 5861 5864 5867 5868 5871 5875 5880 5883 5887 5891 5893 5896 5898 5901 5903 5906 5909 5911 5913 5914 5915 5916 5916 5916 5915 5913 5911 5909 5908 5906 5904 5903 5901
5803 5810 5816 5820 5828 5834 5838 5843 5847 5849 5852 5854 5856 5857 5862 5868 5872 5874 5879 5883 5885 5886 5889 5892 5894 5897 5900 5901 5902 5903 5904 5905 5905 5904 5903 5901 5900 5899 5897 5896 5895 5893 5892
5790 5798 5805 5811 5816 5822 5826 5831 5836 5840 5843 5844 5847 5849 5853 5858 5860 5864 5867 5867 5871 5874 5876 5877 5882 5889 5890 5890 5892 5893 5893 5892 5893 5892 5891 5890 5889 5888 5886 5885 5884 5883 5882
5777 5785 5790 5798 5801 5808 5815 5821 5824 5829 5831 5833 5837 5839 5842 5848 5851 5854 5855 5858 5859 5858 5858 5861 5861 5867 5878 5879 5878 5878 5879 5880 5880 5879 5879 5878 5878 5876 5875 5874 5873 5872 5870
5763 5769 5777 5783 5787 5796 5801 5805 5811 5814 5814 5818 5821 5823 5829 5836 5843 5847 5849 5849 5842 5850 5850 5820 5845 5862 5867 5867 5866 5867 5866 5865 5866 5866 5866 5866 5865 5864 5863 5862 5862 5861 5860
5751 5756 5761 5770 5774 5781 5785 5791 5795 5801 5780 5788 5808 5815 5820 5826 5827 5832 5835 5838 5839 5840 5837 5840 5835 5844 5853 5857 5854 5854 5854 5854 5854 5854 5853 5853 5853 5852 5852 5851 5850 5849 5848
5740 5744 5751 5758 5762 5768 5773 5778 5782 5785 5784 5791 5802 5809 5811 5811 5813 5818 5820 5823 5824 5829 5818 5823 5825 5833 5843 5843 5842 5842 5842 5843 5843 5841 5840 5841 5840 5840 5839 5839 5838 5837 5837
5729 5735 5741 5744 5744 5749 5757 5765 5770 5774 5776 5782 5791 5795 5790 5793 5797 5801 5809 5809 5807 5814 5811 5810 5818 5825 5826 5826 5829 5831 5829 5827 5828 5830 5830 5829 5827 5827 5827 5827 5827 5825 5823
5719 5724 5729 5733 5738 5735 5742 5736 5752 5756 5765 5772 5777 5778 5778 5757 5773 5787 5794 5796 5795 5799 5804 5804 5807 5812 5814 5815 5815 5815 5815 5815 5815 5816 5816 5815 5815 5813 5814 5812 5812 5811 5807
5707 5711 5717 5722 5725 5727 5731 5736 5740 5747 5750 5744 5759 5768 5767 5771 5774 5775 5778 5778 5782 5787 5790 5792 5795 5798 5799 5798 5799 5801 5801 5800 5800 5800 5799 5800 5800 5799 5799 5799 5797 5793 5790
5693 5700 5703 5709 5714 5719 5721 5723 5726 5732 5737 5734 5719 5738 5749 5754 5756 5759 5762 5765 5768 5770 5773 5776 5780 5782 5783 5785 5785 5784 5784 5783 5783 5783 5783 5783 5783 5783 5783 5781 5778 5777 5774